CW8842 Weather Reports


time (UTC)temp
C
wind
direction
speed
KPH
gust
KPH
rain 1hr
cm
rain 24hr
cm
rain mn
cm
humidity
%
barometer
mb
20260505002628 18 153 8.0 19.3 0.00 0.00 0.00 33 1009.2
20260505001621 19 32 3.2 14.5 0.00 0.00 0.00 35 1009.2
20260505000626 20 202 9.7 25.7 0.00 0.00 0.00 34 1009.1
20260504235641 20 184 17.7 22.5 0.00 0.00 0.00 30 1009.1
20260504234627 20 190 11.3 22.5 0.00 0.00 0.00 24 1009.0
20260504233616 20 184 9.7 19.3 0.00 0.00 0.00 26 1009.0
20260504232628 20 351 4.8 19.3 0.00 0.00 0.00 24 1009.0
20260504231616 20 165 4.8 17.7 0.00 0.00 0.00 25 1009.1
20260504230627 20 171 4.8 19.3 0.00 0.00 0.00 26 1009.0
20260504225613 20 344 6.4 20.9 0.00 0.00 0.00 26 1009.0
20260504224642 20 212 9.7 20.9 0.00 0.00 0.00 27 1009.1
20260504223627 20 5 4.8 22.5 0.00 0.00 0.00 27 1009.0
20260504222615 20 164 8.0 19.3 0.00 0.00 0.00 26 1009.0
20260504221621 20 215 9.7 17.7 0.00 0.00 0.00 27 1009.2
20260504220634 20 209 12.9 22.5 0.00 0.00 0.00 26 1009.3
20260504215615 20 335 3.2 19.3 0.00 0.00 0.00 27 1009.4
20260504214642 20 206 11.3 19.3 0.00 0.00 0.00 26 1009.6
20260504213630 20 315 4.8 19.3 0.00 0.00 0.00 25 1009.8
20260504212622 20 175 9.7 17.7 0.00 0.00 0.00 27 1010.0
20260504211631 20 200 11.3 22.5 0.00 0.00 0.00 26 1010.0
20260504210618 20 235 6.4 20.9 0.00 0.00 0.00 25 1010.1
20260504205637 20 244 11.3 27.4 0.00 0.00 0.00 28 1010.2
20260504204623 20 182 20.9 32.2 0.00 0.00 0.00 27 1010.5
20260504203615 19 231 16.1 25.7 0.00 0.00 0.00 29 1010.6
20260504202625 19 191 8.0 19.3 0.00 0.00 0.00 30 1010.5
20260504201613 19 196 12.9 30.6 0.00 0.00 0.00 30 1010.8
20260504200614 19 190 16.1 29.0 0.00 0.00 0.00 30 1010.8
20260504195634 18 182 9.7 16.1 0.00 0.00 0.00 31 1011.0
20260504194622 18 30 6.4 17.7 0.00 0.00 0.00 33 1011.0
20260504193630 17 327 16.1 22.5 0.00 0.00 0.00 31 1011.2
20260504192618 17 325 6.4 32.2 0.00 0.00 0.00 33 1011.2
20260504191630 18 355 17.7 29.0 0.00 0.00 0.00 32 1011.2
20260504190613 17 331 11.3 24.1 0.00 0.00 0.00 31 1011.4
20260504185635 17 360 11.3 29.0 0.00 0.00 0.00 34 1011.4
20260504184625 18 5 9.7 22.5 0.00 0.00 0.00 33 1011.5
20260504183619 18 355 3.2 20.9 0.00 0.00 0.00 33 1011.7
20260504182650 17 339 11.3 19.3 0.00 0.00 0.00 36 1011.8
20260504181640 18 43 9.7 16.1 0.00 0.00 0.00 33 1012.1
20260504180616 17 329 3.2 22.5 0.00 0.00 0.00 35 1012.2
20260504175619 17 22 6.4 29.0 0.00 0.00 0.00 37 1012.3
20260504174652 17 222 6.4 14.5 0.00 0.00 0.00 37 1012.3
20260504173640 17 194 3.2 11.3 0.00 0.00 0.00 39 1012.3
20260504172629 16 5 3.2 25.7 0.00 0.00 0.00 39 1012.4
20260504171619 16 100 6.4 22.5 0.00 0.00 0.00 40 1012.5
20260504170612 16 218 19.3 29.0 0.00 0.00 0.00 41 1012.4
20260504150631 15 155 4.8 8.0 0.00 0.00 0.00 38 1012.4
20260504140614 13 83 1.6 20.9 0.00 0.00 0.00 40 1012.5
20260504130630 12 163 11.3 22.5 0.00 0.00 0.00 39 1012.3
20260504110638 11 184 6.4 8.0 0.00 0.00 0.00 34 1012.1
20260504081627 10 148 0.0 1.6 0.00 0.00 0.00 37 1012.3
20260504080628 10 58 0.0 0.0 0.00 0.00 0.00 36 1012.4